Regional Weather Roundup
Issued by NWS Charleston, SC

Home | Current Version | Previous Version | Text Only | Print | Product List | Glossary On
Versions: 1 2 3 4 5 6 7 8 9 10 11 12 13 14 15 16 17 18 19 20 21 22 23 24 25 26 27 28 29 30 31 32 33 34 35 36 37 38 39 40 41 42 43 44 45 46 47 48 49 50
417
ASUS42 KCHS 260027
RWRCHS

REGIONAL WEATHER ROUNDUP
NATIONAL WEATHER SERVICE CHARLESTON SC
800 PM EDT MON SEP 25 2017

NOTE: "FAIR" INDICATES FEW OR NO CLOUDS BELOW 12,000 FEET WITH NO
SIGNIFICANT WEATHER AND/OR OBSTRUCTIONS TO VISIBILITY.

NOT ALL STATIONS ARE QUALITY CONTROLLED. USE DATA WITH CAUTION...
ESPECIALLY DEWPOINT OBSERVATIONS.

SCZ027-030-031-034>040-042>050-260100-
...SOUTHEAST SOUTH CAROLINA...

CITY           SKY/WX    TMP DP  RH WIND       PRES   REMARKS
N CHARLESTON   PTCLDY    77  69  76 N8        29.87R
6HR MIN TEMP:  77; 6HR MAX TEMP:  84;

WATERFRONT PRK   N/A     80  71  74 N7        29.70S
JOHNS ISLAND   MOCLDY    79  72  78 N5        29.86S
PINOPOLIS        N/A     79  72  78 NE10      29.81R
MONCKS CORNER  FAIR      73  68  83 CALM      29.88S
SUMMERVILLE    FAIR      73  70  88 N3        29.89S
BEAUFORT MCAS  PTCLDY    77  70  79 N3        29.87S
6HR MIN TEMP:  77; 6HR MAX TEMP:  86;

BEAUFORT ARPT  FAIR      77  68  73 N3        29.87R
HILTON HEAD IS CLEAR     79  70  73 N6        29.88R
WALTERBORO     CLEAR     73  68  83 CALM      29.89R
ALLENDALE      NOT AVBL

...SOUTHERN MIDLANDS AND PEE DEE...

CITY           SKY/WX    TMP DP  RH WIND       PRES   REMARKS
GEORGETOWN     MOCLDY    72  72 100 NW3       29.88S
KINGSTREE      MOCLDY    70  70 100 CALM      29.88S
ORANGEBURG     CLEAR     77  66  68 E5        29.89R
6HR MIN TEMP:  77; 6HR MAX TEMP:  86;

BARNWELL       MOCLDY    77  68  73 CALM      29.89S
AIKEN          MOCLDY    75  64  69 CALM      29.95R
MANNING        FAIR      73  66  78 MISG      29.90R
COLUMBIA       MOCLDY    83  64  52 N5        29.88S
6HR MIN TEMP:  83; 6HR MAX TEMP:  89;

SUMTER         PTCLDY    78  67  69 E7        29.88R
6HR MIN TEMP:  77; 6HR MAX TEMP:  88;

FLORENCE       MOCLDY    75  69  81 NE6       29.90S
6HR MIN TEMP:  75; 6HR MAX TEMP:  83;

MYRTLE BEACH   CLOUDY    76  70  82 N14       29.87R
N MYRTLE BEACH PTCLDY    76  70  82 N6        29.85S
6HR MIN TEMP:  76; 6HR MAX TEMP:  82;


$$

GAZ063-065-086>088-099>101-113>116-118-119-134>141-150-260100-
...SOUTHEAST GEORGIA...

CITY           SKY/WX    TMP DP  RH WIND       PRES   REMARKS
SAVANNAH ARPT  PTCLDY    79  68  69 NE7       29.87R
6HR MIN TEMP:  79; 6HR MAX TEMP:  89;

HUNTER AAF     CLEAR     80  68  66 NE7       29.84S
6HR MIN TEMP:  80; 6HR MAX TEMP:  87; 6HR PCP: TRACE;

FORT STEWART   CLEAR     77  69  75 CALM      29.84S
6HR MIN TEMP:  77; 6HR MAX TEMP:  89;

STATESBORO     CLEAR     74  66  76 CALM      29.88S
SYLVANIA       CLEAR     76  70  81 E3        29.89S
CLAXTON        FAIR      74  70  86 CALM      29.88R

...CSRA...CENTRAL AND FAR SOUTHEAST GEORGIA...

CITY           SKY/WX    TMP DP  RH WIND       PRES   REMARKS
THOMSON        CLEAR     73  68  83 CALM      29.96R
AUGUSTA-BUSH   CLEAR     75  64  69 NE3       29.88S
AUGUSTA-DANIEL CLEAR     83  63  50 NE6       29.91R
SWAINSBORO     FAIR      72  70  94 CALM      29.90S
VIDALIA        CLEAR     77  66  69 CALM      29.89R
EASTMAN        FAIR      73  58  59 CALM      29.92R
HAZLEHURST     FAIR      80  53  38 NE3       29.88R
ALMA           CLEAR     74  65  73 CALM      29.87R
6HR MIN TEMP:  74; 6HR MAX TEMP:  91;

WAYCROSS       CLEAR     74  64  70 CALM      29.87R
JESUP          NOT AVBL
BAXLEY         FAIR      73  68  83 CALM      29.88R
BRUNSWICK      CLEAR     73  70  88 E3        29.87R
SAINT SIMONS   CLEAR     79  72  79 NE5       29.85S
6HR MIN TEMP:  79; 6HR MAX TEMP:  85;


$$

SCZ027-028-034-036>038-045-046-048>050-GAZ119-141-260100-
...LAKE AND SUPPLEMENTAL COASTAL OBSERVATIONS...

STATION/POSITION TIME  TEMP    WIND        PRES    WAVE   SWELL
                       AIR SEA DIR/SP/G            HT/PER HT/PER/DIR
                 (UTC) (F)     (DEG/KT/KT) (MB)    (FT/S) (FT/S/D)
WINYAH BAY       2345   75     320/  2     1011.0S
LAKE MURRAY      2320   81      CALM  /  4 1011.5R
ACE BASIN NERRS  2345   77        CALM     1011.0S
FORT PULASKI     0000   80 81   30/  5/  8 1011.8
SAPELO ISLAND    0000   76        CALM     1011.0

$$

ANZ835-935-AMZ111-154-330-350-352-354-370-450-454-472-260100-
...C-MAN AND BUOY OBSERVATIONS...

STATION/POSITION TIME  TEMP    WIND        PRES    WAVE   SWELL
                       AIR SEA DIR/SP/G            HT/PER HT/PER/DIR
                 (UTC) (F)     (DEG/KT/KT) (MB)    (FT/S) (FT/S/D)
BUOY 41004       0010   78 81  350/ 19/ 21 1009.9
BUOY 41008       2350   78 81   50/ 10/ 12 1010.7S   5/12   5/110/12
FOLLY BEACH CMAN 0000   79     350/  8/ 10 1011.7F
CAPERS NEARSHORE 0008   75 80  360/ 16/ 21 1010.7S
FRIPP NEARSHORE  0008   80      10/ 10/ 14 1016.4R


STATION/POSITION TIME  TEMP    WIND        PRES    WAVE   SWELL
                       AIR SEA DIR/SP/G            HT/PER HT/PER/DIR
                 (UTC) (F)     (DEG/KT/KT) (MB)    (FT/S) (FT/S/D)
5E ST. MARYS GA  0000      81                N/A     4/13   3/110/13
FRYING PAN BUOY  0010   79 81  360/ 23/ 27 1008.9
BUOY 41025       2350   75 79   30/ 27/ 31 1008.2R  15/14  13/140/14
CAPE LOOKOUT NC  0000   75      20/ 23/ 28 1009.3S
BUOY 41002       2350   77 81  340/ 41/ 52  992.5S  19/10  10/ 90/11
BUOY 41010       0000          350/ 16/ 21 1009.4
ST AUGUSTINE FL  0000   80 82   30/ 11/ 12 1011.4R


$$




USA.gov is the U.S. government's official web portal to all federal, state and local government web resources and services.